Location: Dodgeville
(42.9600°N, 90.1300°W)
Time: 08:04:06
(UTC-05:00)

Amateur Radio Satellites - All Passes

Search period start: 23 October 2014 07:34
Search period end: 24 October 2014 07:34
Location: Dodgeville, 42.9600°N, 90.1300°W

Satellite Date Start Highest point End Downlink Frequencies (MHz)
Time Altitude Azimuth
JAS-2 23 Oct 07:45:18 07:52:23 42° 294° (WNW) 07:59:36 435.800 - 435.900 CW/SSB, 435.910 FM
STRAND 1 23 Oct 08:01:42 08:05:54 25° 266° (W) 08:10:08 ?
Hamsat 23 Oct 08:06:23 08:09:10 18° 295° (WNW) 08:11:58 145.90 MHz
AO-7 23 Oct 08:13:32 08:17:48 15° 316° (NW) 08:22:04 29.400 - 29.500 MHz
RS-15 23 Oct 09:01:02 09:11:37 51° 248° (WSW) 09:22:38 29.354 - 29.394 USB, Beacon 29.352 USB
SO-67 23 Oct 09:01:44 09:04:21 20° 291° (WNW) 09:06:57 435.3500 MHz FM
HO-68 23 Oct 09:03:44 09:09:41 27° 94° (E) 09:15:34 435.675 MHz FM
Saudisat 1A 23 Oct 09:06:12 09:10:27 48° 309° (NW) 09:14:45 436.775 MHz
MaSat-1 23 Oct 09:16:57 09:19:08 21° 55° (NE) 09:21:10 437.345 MHz
UKube-1 23 Oct 09:32:38 09:34:25 12° 90° (E) 09:36:12 145.840 MHz, 145.915 MHz
FUNcube-1 23 Oct 10:09:21 10:10:49 12° 89° (E) 10:12:16 145.950 - 145.970 MHz USB
Oscar 11 23 Oct 10:14:02 10:17:55 32° 97° (E) 10:21:46 145.825 FM, Beacon 2401.500 USB
HO-68 23 Oct 10:50:44 10:57:47 61° 292° (WNW) 11:04:49 435.675 MHz FM
MaSat-1 23 Oct 10:53:57 10:54:28 10° 256° (WSW) 10:55:00 437.345 MHz
ZACube-1 23 Oct 10:58:19 11:02:23 41° 98° (E) 11:06:21 437.345 MHz
UKube-1 23 Oct 11:06:41 11:11:02 64° 287° (WNW) 11:15:20 145.840 MHz, 145.915 MHz
KITSAT 1 23 Oct 11:26:11 11:31:48 21° 102° (ESE) 11:37:24 435.175 FM
FUNcube-1 23 Oct 11:43:25 11:47:40 62° 286° (WNW) 11:51:47 145.950 - 145.970 MHz USB
Oscar 11 23 Oct 11:50:30 11:53:56 24° 293° (WNW) 11:57:22 145.825 FM, Beacon 2401.500 USB
Sapphire 23 Oct 12:29:57 12:34:29 26° 46° (NE) 12:38:59 437.095 MHz 1200 baud AX-25 AFSK
ZACube-1 23 Oct 12:35:30 12:38:29 19° 295° (WNW) 12:41:25 437.345 MHz
Oscar 19 23 Oct 12:37:59 12:42:03 24° 64° (ENE) 12:46:06 437.125 CW, 437.150 USB
HO-68 23 Oct 12:41:05 12:44:04 13° 312° (NW) 12:47:02 435.675 MHz FM
SO-50 23 Oct 12:42:12 12:45:22 19° 111° (ESE) 12:48:36 436.795 FM
PCSat 23 Oct 12:52:25 12:57:31 39° 51° (NE) 13:02:34 145.825 MHz
AO-27 23 Oct 12:53:06 12:55:57 15° 59° (ENE) 12:58:49 436.795 MHz FM
JAS-1B 23 Oct 12:53:53 12:58:55 30° 65° (ENE) 13:03:47 435.800 - 435.900 CW/SSB
ISS 23 Oct 12:58:59 13:01:35 21° 135° (SE) 13:04:12 145.800 FM
Oscar 10/S400 23 Oct 13:09:50 13:26:45 29° 150° (SSE) 13:44:03 145.825 - 145.975 CW/USB, Beacon 145.810 USB
KITSAT 1 23 Oct 13:18:06 13:26:12 85° 302° (WNW) 13:34:20 435.175 FM
Oscar 16 23 Oct 13:22:12 13:27:17 60° 72° (ENE) 13:32:22 437.025 USB, Beacon 2401.1428
AO-Echo 23 Oct 13:30:41 13:35:07 36° 68° (ENE) 13:39:41 ?
Uribyol 2 23 Oct 13:39:14 13:44:02 38° 68° (ENE) 13:48:51 436.500 FM
AO-7 23 Oct 13:40:35 13:43:07 12° 40° (NE) 13:45:38 29.400 - 29.500 MHz
ITAMSAT 1 23 Oct 13:44:48 13:49:38 40° 68° (ENE) 13:54:31 435.822 SSB
Gurwin Techsat 1B 23 Oct 13:55:56 14:00:22 28° 65° (ENE) 14:04:50 435.225 FM
TMSAT-1 23 Oct 14:08:17 14:12:39 27° 65° (ENE) 14:17:02 436.925 FM
Sapphire 23 Oct 14:12:56 14:18:14 55° 245° (WSW) 14:23:30 437.095 MHz 1200 baud AX-25 AFSK
UOSAT-12 23 Oct 14:14:58 14:17:43 16° 109° (ESE) 14:20:30 437.025 FM, 437.400 FM
Oscar 19 23 Oct 14:16:11 14:21:06 45° 261° (W) 14:26:03 437.125 CW, 437.150 USB
SO-50 23 Oct 14:21:07 14:25:31 52° 309° (NW) 14:30:04 436.795 FM
AO-27 23 Oct 14:29:35 14:34:47 80° 256° (WSW) 14:40:03 436.795 MHz FM
ISS 23 Oct 14:34:48 14:38:04 52° 332° (NNW) 14:41:21 145.800 FM
PCSat 23 Oct 14:36:01 14:40:50 33° 250° (WSW) 14:45:37 145.825 MHz
JAS-1B 23 Oct 14:44:00 14:49:34 38° 262° (W) 14:54:49 435.800 - 435.900 CW/SSB
Oscar 16 23 Oct 15:03:41 15:07:01 17° 269° (W) 15:10:23 437.025 USB, Beacon 2401.1428
AO-Echo 23 Oct 15:09:49 15:13:56 27° 266° (W) 15:18:12 ?
Uosat F 23 Oct 15:15:43 15:18:58 18° 61° (ENE) 15:22:14 435.120 FM
KITSAT 1 23 Oct 15:16:16 15:22:48 26° 325° (NW) 15:29:21 435.175 FM
Uribyol 2 23 Oct 15:19:08 15:23:34 28° 265° (W) 15:28:03 436.500 FM
ITAMSAT 1 23 Oct 15:24:55 15:29:14 26° 265° (W) 15:33:37 435.822 SSB
AO-7 23 Oct 15:26:05 15:33:52 48° 62° (ENE) 15:41:40 29.400 - 29.500 MHz
Gurwin Techsat 1B 23 Oct 15:35:11 15:40:09 40° 262° (W) 15:45:09 435.225 FM
TMSAT-1 23 Oct 15:47:21 15:52:21 42° 262° (W) 15:57:23 436.925 FM
UOSAT-12 23 Oct 15:52:43 15:57:19 65° 307° (NW) 16:02:02 437.025 FM, 437.400 FM
Saudisat 1A 23 Oct 15:52:52 15:56:29 24° 43° (NE) 16:00:06 436.775 MHz
SO-50 23 Oct 16:05:46 16:07:12 11° 330° (NNW) 16:08:38 436.795 FM
ISS 23 Oct 16:12:46 16:15:19 20° 351° (N) 16:17:52 145.800 FM
JAS-2 23 Oct 16:15:13 16:19:32 21° 56° (NE) 16:24:12 435.800 - 435.900 CW/SSB, 435.910 FM
Uosat F 23 Oct 16:52:16 16:57:14 63° 258° (WSW) 17:02:16 435.120 FM
KITSAT 1 23 Oct 17:18:05 17:21:40 13° 355° (N) 17:25:15 435.175 FM
AO-7 23 Oct 17:19:02 17:26:42 42° 261° (W) 17:34:27 29.400 - 29.500 MHz
Hamsat 23 Oct 17:23:43 17:27:32 34° 70° (ENE) 17:31:21 145.90 MHz
Saudisat 1A 23 Oct 17:32:01 17:36:16 46° 242° (WSW) 17:40:28 436.775 MHz
UOSAT-12 23 Oct 17:36:05 17:38:24 13° 327° (NNW) 17:40:45 437.025 FM, 437.400 FM
ISS 23 Oct 17:50:12 17:52:51 21° 12° (NNE) 17:55:29 145.800 FM
JAS-2 23 Oct 17:57:53 18:03:44 74° 258° (WSW) 18:10:26 435.800 - 435.900 CW/SSB, 435.910 FM
OPAL 23 Oct 18:27:57 18:32:57 83° 106° (ESE) 18:37:54 ?
STRAND 1 23 Oct 18:33:25 18:35:33 12° 89° (E) 18:37:41 ?
Hamsat 23 Oct 19:00:23 19:03:34 21° 267° (W) 19:06:45 145.90 MHz
KITSAT 1 23 Oct 19:15:32 19:21:01 19° 26° (NNE) 19:26:29 435.175 FM
ISS 23 Oct 19:26:40 19:30:00 66° 31° (NNE) 19:33:20 145.800 FM
HO-68 23 Oct 19:34:10 19:39:37 24° 56° (ENE) 19:45:05 435.675 MHz FM
SO-67 23 Oct 19:34:12 19:37:34 53° 260° (W) 19:40:57 435.3500 MHz FM
JAS-2 23 Oct 19:49:26 19:50:13 10° 279° (W) 19:51:01 435.800 - 435.900 CW/SSB, 435.910 FM
OPAL 23 Oct 20:08:42 20:11:09 14° 304° (NW) 20:13:36 ?
STRAND 1 23 Oct 20:10:10 20:15:21 81° 285° (WNW) 20:20:30 ?
UKube-1 23 Oct 20:29:16 20:31:23 14° 61° (ENE) 20:33:30 145.840 MHz, 145.915 MHz
AO-40 23 Oct 20:46:19 22:13:42 15° 110° (ESE) 23:08:14 Beacon 2401.320
ISS 23 Oct 21:04:10 21:06:22 17° 227° (SW) 21:08:34 145.800 FM
FUNcube-1 23 Oct 21:06:34 21:08:43 13° 62° (ENE) 21:10:50 145.950 - 145.970 MHz USB
Oscar 11 23 Oct 21:10:01 21:13:45 29° 69° (ENE) 21:17:30 145.825 FM, Beacon 2401.500 USB
KITSAT 1 23 Oct 21:10:29 21:18:26 56° 51° (NE) 21:26:19 435.175 FM
SO-50 23 Oct 21:11:34 21:15:43 28° 44° (NE) 21:19:54 436.795 FM
RS-15 23 Oct 21:16:03 21:24:24 26° 102° (ESE) 21:32:39 29.354 - 29.394 USB, Beacon 29.352 USB
HO-68 23 Oct 21:19:30 21:26:38 74° 255° (WSW) 21:33:51 435.675 MHz FM
STRAND 1 23 Oct 21:51:59 21:53:41 12° 304° (WNW) 21:55:24 ?
ZACube-1 23 Oct 21:55:15 21:59:31 39° 71° (ENE) 22:03:44 437.345 MHz
UKube-1 23 Oct 22:02:43 22:07:02 66° 258° (WSW) 22:11:23 145.840 MHz, 145.915 MHz
FUNcube-1 23 Oct 22:39:56 22:44:31 73° 258° (WSW) 22:49:04 145.950 - 145.970 MHz USB
UOSAT-12 23 Oct 22:42:04 22:45:47 22° 41° (NE) 22:49:27 437.025 FM, 437.400 FM
Oscar 11 23 Oct 22:46:16 22:49:54 26° 265° (W) 22:53:34 145.825 FM, Beacon 2401.500 USB
SO-50 23 Oct 22:51:50 22:56:28 46° 242° (WSW) 23:01:07 436.795 FM
KITSAT 1 23 Oct 23:06:21 23:13:31 37° 251° (WSW) 23:20:41 435.175 FM
HO-68 23 Oct 23:12:49 23:15:31 12° 274° (W) 23:18:13 435.675 MHz FM
RS-15 23 Oct 23:24:21 23:35:23 84° 304° (NW) 23:46:24 29.354 - 29.394 USB, Beacon 29.352 USB
ZACube-1 23 Oct 23:32:30 23:36:01 22° 267° (W) 23:39:32 437.345 MHz
UOSAT-12 24 Oct 00:21:39 00:26:18 59° 240° (WSW) 00:30:52 437.025 FM, 437.400 FM
MaSat-1 24 Oct 00:29:00 00:33:11 86° 296° (WNW) 00:36:58 437.345 MHz
Oscar 16 24 Oct 01:33:57 01:37:37 20° 92° (E) 01:41:15 437.025 USB, Beacon 2401.1428
AO-Echo 24 Oct 01:39:00 01:40:43 11° 87° (E) 01:42:25 ?
RS-15 24 Oct 01:40:05 01:49:32 32° 332° (NNW) 01:59:07 29.354 - 29.394 USB, Beacon 29.352 USB
Uribyol 2 24 Oct 01:53:06 01:55:05 12° 88° (E) 01:57:03 436.500 FM
ITAMSAT 1 24 Oct 01:58:33 02:00:54 13° 89° (E) 02:03:14 435.822 SSB
JAS-1B 24 Oct 02:24:13 02:30:40 52° 101° (E) 02:38:19 435.800 - 435.900 CW/SSB
Oscar 10/S400 24 Oct 02:24:38 03:04:53 13° 248° (WSW) 04:09:06 145.825 - 145.975 CW/USB, Beacon 145.810 USB
Oscar 19 24 Oct 02:26:35 02:31:39 59° 101° (E) 02:36:41 437.125 CW, 437.150 USB
AO-27 24 Oct 02:42:02 02:46:48 34° 97° (E) 02:51:31 436.795 MHz FM
Oscar 16 24 Oct 03:12:18 03:17:16 52° 289° (WNW) 03:22:13 437.025 USB, Beacon 2401.1428
Sapphire 24 Oct 03:14:32 03:17:50 17° 104° (ESE) 03:21:08 437.095 MHz 1200 baud AX-25 AFSK
AO-Echo 24 Oct 03:14:49 03:20:09 89° 104° (ESE) 03:25:29 ?
Uribyol 2 24 Oct 03:29:58 03:35:13 84° 285° (WNW) 03:40:24 436.500 FM
AO-7 24 Oct 03:30:02 03:32:32 12° 85° (E) 03:35:02 29.400 - 29.500 MHz
PCSat 24 Oct 03:35:42 03:40:13 28° 109° (ESE) 03:44:46 145.825 MHz
ITAMSAT 1 24 Oct 03:35:45 03:41:00 80° 286° (WNW) 03:46:12 435.822 SSB
Gurwin Techsat 1B 24 Oct 03:50:00 03:55:21 76° 103° (ESE) 04:00:39 435.225 FM
RS-15 24 Oct 03:58:15 04:06:36 24° 7° (N) 04:15:07 29.354 - 29.394 USB, Beacon 29.352 USB
TMSAT-1 24 Oct 04:01:51 04:07:11 73° 103° (ESE) 04:12:28 436.925 FM
OPAL 24 Oct 04:06:27 04:10:23 23° 61° (ENE) 04:14:18 ?
Oscar 19 24 Oct 04:07:02 04:10:31 19° 298° (WNW) 04:14:01 437.125 CW, 437.150 USB
JAS-1B 24 Oct 04:15:32 04:21:07 31° 295° (WNW) 04:27:33 435.800 - 435.900 CW/SSB
AO-27 24 Oct 04:21:39 04:26:14 32° 294° (WNW) 04:30:47 436.795 MHz FM
Sapphire 24 Oct 04:55:13 05:00:37 72° 302° (WNW) 05:06:03 437.095 MHz 1200 baud AX-25 AFSK
AO-Echo 24 Oct 04:55:34 04:58:09 14° 302° (WNW) 05:00:45 ?
Uosat F 24 Oct 04:59:13 05:03:54 37° 98° (E) 05:08:33 435.120 FM
JAS-2 24 Oct 05:06:34 05:12:00 20° 88° (E) 05:17:25 435.800 - 435.900 CW/SSB, 435.910 FM
Uribyol 2 24 Oct 05:11:50 05:13:51 12° 303° (WNW) 05:15:52 436.500 FM
ITAMSAT 1 24 Oct 05:17:52 05:19:37 12° 304° (NW) 05:21:21 435.822 SSB
PCSat 24 Oct 05:18:13 05:23:24 45° 307° (NW) 05:28:37 145.825 MHz
AO-7 24 Oct 05:18:34 05:26:51 66° 105° (ESE) 05:35:07 29.400 - 29.500 MHz
Gurwin Techsat 1B 24 Oct 05:31:33 05:34:40 16° 301° (WNW) 05:37:47 435.225 FM
TMSAT-1 24 Oct 05:43:15 05:46:29 17° 300° (WNW) 05:49:43 436.925 FM
OPAL 24 Oct 05:43:57 05:48:57 50° 258° (WSW) 05:53:55 ?
STRAND 1 24 Oct 05:49:31 05:53:21 22° 63° (ENE) 05:57:12 ?
RS-15 24 Oct 06:12:20 06:22:50 45° 40° (NE) 06:33:42 29.354 - 29.394 USB, Beacon 29.352 USB
Uosat F 24 Oct 06:38:16 06:42:32 28° 295° (WNW) 06:46:47 435.120 FM
Sapphire 24 Oct 06:41:57 06:45:02 15° 323° (NW) 06:48:08 437.095 MHz 1200 baud AX-25 AFSK
Hamsat 24 Oct 06:43:44 06:47:54 63° 101° (E) 06:52:04 145.90 MHz
JAS-2 24 Oct 06:50:00 06:57:47 87° 285° (WNW) 07:05:38 435.800 - 435.900 CW/SSB, 435.910 FM
PCSat 24 Oct 07:07:06 07:08:17 11° 329° (NNW) 07:09:27 145.825 MHz
AO-7 24 Oct 07:12:05 07:19:05 32° 304° (NW) 07:26:06 29.400 - 29.500 MHz
